Powrót do katalogu

CZ-6A DEB

AktywnyPO
NORAD 60650·DEBRIS·🇨🇳 China

Wystrzelony Aug 6, 2024 z Taiyuan Satellite Launch Center

Loading…

Następne Przeloty (najbliższe 24 godziny)

TLE

ŚwieżeSource: Space-Track

Epoka: Sep 14, 2026, 22:53 UTC

1 60650U 24140BB  26257.95397894  .00000692  00000-0  13864-3 0  9996
2 60650  88.9564 255.4434 0125554 313.9914  45.0997 14.55774362111582

Śledź CZ-6A DEB w czasie rzeczywistym z AllMySat

Download on the App Store